Location: Béaulencourt
(50.0796°N, 2.8795°E)
Time: 22:27:07
(UTC+00:00)

Cosmos 540 Rocket - Pass Details

Date: 20 January 2026
Orbit: 736 x 746 km, 74.1° (Epoch: 7 February)

Event Time Altitude Azimuth Distance (km) Brightness Sun altitude
Exits shadow 04:52:28 26° 357° (N) 1,418 4.8 -25.9°
Maximum altitude 04:55:04 51° 61° (ENE) 927 4.1 -25.5°
Drops below altitude 10° 05:00:00 10° 137° (SE) 2,242 6.5 -24.7°
Sets 05:02:25 0° 142° (SE) 3,163 7.3 -24.3°
